Hourly Data Report for May 05, 2021

TOBERMORY RCS
ONTARIO
Current Station Operator: ECCC - MSC

45°14'00.000" N
81°38'00.000" W
213.50 m
6128330
71767
TTR

Download Data

Hourly Data (May 2021)
Hourly Data Report for May 5, 2021
TIME
LST
Temp Definition
°C
Dew Point Definition
°C
Rel Hum Definition
%
Precip. Amount Definition
mm

Wind Dir Definition
10's deg

Wind Spd Definition
km/h
Visibility Definition
km
Stn Press Definition
kPa
Hmdx Definition


Wind Chill Definition


Weather Definition


00:00 4.3 3.8 97 0.0 29 19   98.32     LegendNANA
01:00 4.1 3.7 98 0.1 29 19   98.32     LegendNANA
02:00 4.0 3.6 97 0.1 30 18   98.31     LegendNANA
03:00 4.0 3.6 97 0.0 31 16   98.32     LegendNANA
04:00 4.0 3.6 97 0.0 31 13   98.35     LegendNANA
05:00 4.1 3.8 97 0.0 30 11   98.39     LegendNANA
06:00 4.6 4.2 97 0.0 30 9   98.44     LegendNANA
07:00 5.4 4.8 95 0.0 32 10   98.53     LegendNANA
08:00 5.7 5.0 95 0.0 32 11   98.58     LegendNANA
09:00 6.5 5.1 91 0.0 34 11   98.64     LegendNANA
10:00 6.6 4.3 86 0.0 33 10   98.68     LegendNANA
11:00 6.9 4.2 83 0.0 33 11   98.75     LegendNANA
12:00 6.2 3.7 83 0.0 29 16   98.78     LegendNANA
13:00 7.3 4.4 82 0.0 29 13   98.82     LegendNANA
14:00 8.0 3.6 74 0.0 29 20   98.84     LegendNANA
15:00 7.6 3.8 77 0.0 30 12   98.88     LegendNANA
16:00 6.2 3.3 81 0.0 34 12   98.97     LegendNANA
17:00 7.1 3.3 77 0.0 29 20   98.98     LegendNANA
18:00 7.0 2.3 72 0.0 29 21   99.02     LegendNANA
19:00 6.3 2.0 74 0.0 30 14   99.07     LegendNANA
20:00 4.9 1.9 81 0.0 30 12   99.13     LegendNANA
21:00 4.4 1.8 83 0.0 30 9   99.20     LegendNANA
22:00 4.6 1.0 78 0.0 31 12   99.24     LegendNANA
23:00 4.3 1.2 80 0.0 30 11   99.24     LegendNANA

Notes on Data Quality.

Legend

  • E = Estimated
  • M = Missing
  • NA = Not Available*
  • [empty] = Indicates an unobserved value
Date modified: